Location: *
(28.3744°N, 81.5492°W)
Time: 03:36:23
(UTC+00:00)

Meteor 2-3 Rocket - Pass Details

Date: 15 June 2025
Orbit: 839 x 886 km, 81.2° (Epoch: 11 July)

Event Time Altitude Azimuth Distance (km) Brightness Sun altitude
Exits shadow 09:21:39 - 182° (S) 3,223 6.4 -13.4°
Reaches altitude 10° 09:23:34 10° 180° (S) 2,491 5.8 -13.0°
Maximum altitude 09:29:13 77° 95° (E) 896 3.9 -12.0°
Drops below altitude 10° 09:34:58 10° 11° (N) 2,533 6.9 -11.0°
Sets 09:37:25 0° 10° (N) 3,479 7.6 -10.5°
